Temp
30 33 33 34 34 33 32 32 32 33 33 33 33 34 34 30 30 30 30 28 29 29 30 28 27 26 26 25 24 23 25 25 23 22 23 23 23 23 24 24 24 24 24 23
32 32 32 32 32 33 32 33 34 33 34 33 33 34 33 31 30 30 30 30 29 29 29 28 27 27 26 26 24 24 25 25 25 23 23 23 23 24 24 24 24 24 23 23
31 32 30 32 32 33 33 34 33 33 33 34 33 34 33 30 29 30 30 31 31 30 30 31 29 27 27 26 24 24 25 26 25 24 22 23 24 24 23 23 23 23 23 23
31 31 31 31 32 33 33 32 33 33 33 33 32 34 35 30 30 28 30 30 31 30 30 30 30 28 27 26 25 24 24 25 25 24 23 23 25 25 25 23 24 23 23 23
31 30 31 31 32 32 34 33 33 33 33 32 32 33 36 30 35 34 30 31 31 30 31 30 30 29 28 26 25 23 23 24 23 24 23 23 24 25 24 23 23 23 22 22
31 30 31 33 32 33 33 32 31 31 32 33 32 32 35 36 35 35 32 31 32 30 30 30 30 28 26 26 24 24 23 25 24 24 23 22 23 25 24 23 22 22 21 21
30 31 31 32 32 31 32 33 33 32 33 33 30 32 35 36 36 33 34 33 31 32 31 30 29 29 27 25 25 24 23 23 24 23 22 22 23 23 23 22 22 22 22 22
30 30 30 31 32 33 33 34 33 31 32 33 29 33 35 35 34 33 32 32 31 31 31 31 30 28 27 26 25 24 23 23 23 23 23 22 23 22 23 23 23 23 23 22
29 30 30 30 32 34 31 32 33 32 28 31 33 33 34 35 35 34 34 32 32 32 31 30 30 29 28 26 25 25 24 24 23 23 23 22 22 23 23 23 22 22 22 21
30 30 30 32 32 31 33 32 32 31 31 31 32 32 35 35 37 37 35 34 34 32 30 31 30 29 28 27 26 25 24 24 24 23 22 22 22 23 23 23 23 23 22 21
30 31 32 31 32 33 31 32 30 32 32 33 33 34 35 35 37 35 35 34 33 32 30 30 30 28 27 26 26 25 24 24 23 23 22 22 22 22 23 22 23 22 22 21
30 31 31 32 31 30 32 34 33 33 32 30 32 34 35 34 34 33 33 33 32 31 30 29 30 28 27 26 25 25 24 24 23 23 22 22 22 22 21 22 22 21 20 21
29 31 31 32 32 30 32 32 33 32 32 31 33 34 33 33 33 32 31 32 31 29 29 29 29 28 27 25 24 23 22 21 21 23 21 20 22 23 22 22 21 20 20 19
29 30 31 32 33 33 32 31 31 33 33 33 33 35 35 35 34 34 32 30 31 29 29 29 28 27 26 24 21 19 19 20 22 22 20 20 21 22 21 21 20 19 18 17
31 31 28 30 29 30 32 33 31 32 33 33 35 32 35 35 34 34 33 30 29 28 28 28 28 26 24 21 20 19 21 24 25 22 20 20 19 21 22 21 19 19 18 18
27 30 28 30 29 30 31 32 32 32 32 31 32 33 35 33 31 30 29 29 30 29 28 27 26 25 21 21 20 20 22 21 24 19 20 20 20 19 20 19 19 18 18 17
28 30 30 31 28 30 31 33 33 33 33 34 33 36 35 33 32 31 30 29 30 29 28 27 26 26 23 21 21 21 23 28 24 20 20 19 20 19 18 18 18 18 16 16
27 27 27 31 29 29 34 30 31 32 33 33 33 33 33 33 31 30 29 30 29 28 27 27 27 26 22 21 21 19 19 26 20 18 18 19 19 18 18 17 17 17 16 15
25 26 28 29 30 30 32 31 31 31 33 33 32 33 32 31 30 31 27 28 28 28 27 27 26 23 21 20 19 19 20 18 18 18 19 19 18 18 17 16 15 15 15 15
24 24 28 26 28 29 33 29 27 28 32 33 31 32 31 29 32 35 26 26 26 27 26 25 23 21 20 19 19 20 19 19 19 19 19 18 18 17 16 16 15 14 14 13
26 26 27 28 28 30 28 26 26 30 31 26 29 30 29 29 29 24 22 24 26 25 24 23 20 21 21 20 21 21 21 19 19 19 18 18 17 16 16 15 14 13 13 13
26 27 27 25 26 27 26 27 27 25 25 25 26 26 27 27 25 23 23 21 24 24 23 21 21 22 21 20 20 20 19 18 18 18 18 17 16 16 15 14 13 13 13 13
24 25 26 26 28 25 25 25 26 25 24 24 24 25 25 25 25 22 21 20 21 23 21 20 22 21 19 19 20 20 18 17 18 17 17 16 16 15 15 14 13 13 13 14
22 21 24 23 26 25 26 25 25 25 24 25 26 26 26 26 26 23 21 19 19 19 20 20 21 19 19 19 19 18 17 17 17 16 16 15 15 15 15 15 14 15 14 15
23 21 23 23 25 25 25 25 24 25 25 26 26 26 26 27 26 24 21 19 18 18 18 19 19 18 18 19 18 17 17 17 17 16 16 16 15 16 14 15 15 15 14 15
21 24 25 27 25 25 26 25 25 24 24 24 25 26 25 26 24 23 19 18 18 18 18 18 18 19 18 17 17 16 17 17 17 16 16 16 16 16 15 15 14 15 15 16
Height
765 768 775 766 767 772 780 785 789 774 763 770 766 761 759 763 765 767 768 773 773 773 775 779 783 787 791 793 796 798 801 803 806 809 813 817 818 819 819 820 820 820 821 822
771 776 765 764 767 771 777 783 782 774 763 769 768 762 755 757 760 760 762 765 767 768 771 774 777 781 784 786 789 794 797 801 803 807 811 814 815 816 816 818 817 817 819 819
777 771 767 768 773 776 777 778 780 785 772 760 768 766 762 758 758 758 758 756 759 761 764 767 771 773 777 781 784 788 792 797 800 803 808 811 812 813 813 814 814 815 817 818
773 765 769 772 774 769 779 769 772 777 782 793 770 791 760 762 759 758 753 751 751 755 757 760 763 768 771 774 781 784 788 794 798 801 804 807 809 811 813 813 813 814 816 817
772 771 772 774 769 765 771 764 770 773 778 782 780 786 759 759 747 741 747 742 744 747 749 754 757 762 767 773 777 782 785 791 795 797 801 806 808 810 810 810 812 815 817 817
766 760 762 759 758 759 758 769 774 778 779 793 782 785 765 754 744 733 735 735 736 741 745 748 753 759 765 770 774 779 783 787 792 795 799 803 806 810 809 810 812 815 817 819
772 765 757 755 765 763 765 771 792 799 796 795 786 786 759 737 730 733 728 729 731 733 738 743 750 755 761 765 769 774 780 784 790 794 798 801 805 807 808 810 813 814 817 818
780 783 764 754 759 765 767 766 784 812 803 786 788 785 757 730 726 725 724 723 725 730 732 737 744 749 755 760 765 771 776 783 787 790 795 801 803 807 809 810 813 815 816 817
781 778 754 753 747 751 771 777 760 780 797 794 775 764 741 727 724 723 719 722 722 723 727 733 739 746 750 755 762 767 772 779 786 789 793 798 803 806 808 811 814 814 817 817
761 777 757 750 748 753 754 753 776 777 802 807 783 778 760 738 725 716 717 717 715 719 726 731 736 743 749 754 759 765 771 776 782 788 793 797 800 804 807 809 812 813 814 817
756 761 763 755 756 755 762 762 768 764 772 782 789 771 731 729 716 720 713 713 715 718 725 731 736 742 746 751 755 761 767 774 779 787 793 797 800 802 804 809 812 814 815 815
751 756 768 758 748 749 748 746 749 765 779 778 773 763 721 720 714 718 714 711 712 716 720 726 732 738 745 749 754 761 768 776 780 785 789 794 795 800 805 808 811 813 814 815
750 759 771 762 756 754 752 747 745 751 756 772 772 758 720 719 712 715 717 712 714 716 719 723 727 734 744 752 758 761 766 775 781 790 794 795 793 798 805 809 811 810 813 815
742 755 756 763 752 743 752 749 749 745 758 757 756 741 724 715 713 705 709 711 712 714 716 720 729 737 743 750 758 761 767 773 778 784 791 798 798 799 804 808 809 811 812 814
739 752 760 751 750 748 742 742 750 751 741 752 738 747 722 712 709 702 700 707 711 714 717 723 730 738 744 753 761 768 771 773 780 779 787 796 799 804 805 809 809 808 811 812
747 752 756 751 748 747 746 738 737 741 741 743 739 735 705 705 706 707 707 706 707 712 719 725 732 739 746 756 766 770 770 769 775 778 782 791 796 801 802 807 806 808 809 812
749 746 752 755 753 748 752 730 729 730 727 724 739 716 705 706 704 704 707 707 707 713 719 726 733 740 748 756 759 756 754 749 760 780 788 795 794 802 803 804 806 807 811 814
751 754 756 750 755 772 723 720 720 726 721 715 714 711 706 703 701 699 702 703 706 710 716 722 729 738 750 754 756 764 766 756 761 772 784 788 793 800 803 805 806 809 812 814
752 755 756 759 753 744 724 722 722 727 720 707 710 703 702 703 704 696 698 701 702 708 715 721 727 737 746 754 759 762 759 776 782 780 783 784 790 798 800 803 809 811 812 813
755 756 756 767 762 759 719 717 720 720 730 698 703 698 702 708 714 689 700 700 701 705 711 718 725 732 739 750 757 755 759 770 777 781 781 785 790 794 798 803 806 810 813 815
756 758 757 752 757 738 726 724 723 737 730 716 706 701 702 709 705 707 703 702 702 704 710 716 723 727 732 737 741 743 749 756 766 773 780 786 792 796 798 802 806 811 816 816
755 756 756 761 762 758 724 725 736 730 721 718 713 712 710 707 709 709 707 708 707 708 711 715 722 725 732 737 737 738 741 758 765 773 780 786 791 793 797 801 806 813 818 820
761 750 749 750 735 729 728 729 723 723 722 718 716 713 713 713 713 716 715 714 714 714 717 720 722 725 732 736 737 742 747 758 766 774 778 784 789 795 800 805 810 814 817 818
752 753 751 750 729 728 725 723 723 722 720 714 711 711 710 713 711 717 719 718 719 723 727 726 728 732 733 737 741 746 752 759 765 773 780 786 791 796 801 807 811 813 816 818
748 752 746 744 729 726 725 724 725 720 717 713 711 709 710 707 708 711 719 724 726 726 732 732 732 734 732 736 743 750 755 761 769 777 783 790 795 798 801 808 809 812 814 815
745 738 737 734 727 729 724 723 723 721 720 717 715 712 711 708 710 716 721 725 728 728 731 738 739 740 734 740 745 753 758 764 771 778 784 787 792 797 803 807 810 810 812 812
Wind_Speed
3 6 11 11 4 4 6 2 4 6 0 5 13 17 7 13 14 15 16 16 16 16 15 20 22 23 22 23 24 23 17 17 18 16 14 13 14 12 14 14 12 11 8 5
3 11 5 5 5 6 4 2 3 4 8 3 4 13 4 12 16 18 17 18 18 16 14 15 17 22 26 27 26 24 27 19 14 14 13 10 9 11 15 10 13 10 7 5
7 2 7 6 7 7 4 7 4 4 6 6 4 5 2 2 10 13 15 16 17 18 18 16 16 21 23 24 25 27 31 28 18 15 14 13 12 11 7 5 7 9 8 5
5 3 6 7 8 8 12 3 4 5 4 4 3 5 6 2 7 12 16 18 18 19 17 15 16 18 22 25 21 22 24 24 21 18 17 17 16 12 7 5 4 6 9 5
5 6 9 7 5 7 6 2 4 3 3 3 4 4 3 3 9 8 17 19 20 17 18 17 17 19 20 18 20 20 21 21 18 19 19 15 12 8 5 4 6 7 7 5
3 2 3 8 6 9 5 3 1 1 1 6 2 3 4 4 6 7 4 17 19 17 17 16 18 15 17 16 18 19 23 23 20 18 17 15 11 8 6 6 6 8 7 6
2 7 3 3 5 3 4 6 6 7 5 6 2 4 10 8 10 11 13 7 17 17 16 15 14 16 17 20 20 21 23 22 20 18 15 15 11 10 9 11 11 12 9 6
3 4 9 8 11 6 9 10 7 9 8 5 2 4 6 6 6 8 9 9 8 14 14 16 15 18 20 21 22 22 23 20 19 17 18 14 12 10 11 15 12 10 9 8
4 3 2 7 5 11 6 7 2 3 1 3 2 5 12 9 13 9 11 8 9 14 15 16 14 16 19 21 22 23 23 21 17 17 18 15 13 13 16 14 11 10 9 7
5 3 1 1 5 4 5 10 5 2 5 7 4 4 9 9 14 9 10 12 10 10 12 14 13 15 15 16 18 18 19 21 18 15 17 16 16 16 17 17 13 14 11 7
7 4 2 2 7 10 4 4 1 1 2 7 9 7 7 13 14 10 9 7 8 7 10 12 11 15 14 15 17 18 19 20 19 17 17 16 15 16 19 17 15 12 9 6
7 2 7 11 1 2 1 5 8 5 5 1 4 10 4 12 13 7 10 8 2 7 10 13 14 15 15 16 15 14 13 16 17 19 19 17 19 17 17 15 13 10 8 6
9 4 3 3 4 2 6 5 5 1 1 7 9 9 3 10 14 5 9 9 4 8 10 11 13 13 13 12 14 17 18 15 12 6 15 16 21 21 15 14 11 11 8 6
6 3 4 6 3 1 6 7 8 9 4 3 8 14 11 11 14 12 10 8 5 6 11 11 10 11 16 19 22 28 27 26 19 14 6 14 20 19 16 14 13 10 8 8
4 2 3 6 8 7 8 3 8 12 4 6 4 7 12 9 9 12 10 7 7 8 9 10 11 13 18 22 26 27 28 22 4 9 13 7 9 15 16 15 13 12 9 9
1 2 2 2 4 6 7 7 8 12 6 10 9 11 10 12 10 11 8 10 10 9 9 11 13 15 20 25 25 24 29 20 11 16 16 22 17 15 18 17 15 14 13 11
2 3 2 3 3 2 6 13 11 6 6 7 7 11 7 11 10 10 6 9 7 7 11 12 13 15 22 28 31 29 20 8 18 18 26 27 20 19 20 17 17 15 14 12
2 1 2 3 2 6 2 3 4 8 9 10 12 13 12 11 10 9 2 6 8 9 12 12 13 18 21 28 28 15 10 12 23 24 26 18 15 20 19 18 15 15 14 12
1 1 3 5 7 5 8 4 5 7 7 10 13 14 14 9 7 13 5 4 9 8 10 13 18 23 26 26 20 16 14 4 14 20 23 22 21 20 16 15 14 14 14 13
3 1 3 1 7 13 10 3 3 6 6 10 14 13 10 4 7 6 5 6 11 13 17 21 24 26 26 28 28 25 22 20 20 22 19 17 18 19 17 15 15 15 13 13
2 2 6 7 6 6 2 4 2 6 5 16 9 10 7 9 4 2 2 1 4 14 20 24 27 25 29 34 39 27 26 22 18 18 19 17 17 17 18 16 16 15 13 12
3 3 4 2 4 8 2 4 4 7 10 13 9 9 8 4 3 0 3 3 4 13 21 23 23 24 24 22 17 15 21 16 19 19 18 17 16 15 15 16 16 14 13 12
4 3 1 5 4 4 3 7 11 8 11 7 6 8 7 5 6 3 4 4 6 12 17 20 22 25 17 8 11 15 18 20 20 20 19 19 18 17 15 16 17 15 12 14
5 4 3 3 0 3 10 8 5 6 8 11 9 6 3 5 4 4 3 5 5 7 10 12 18 17 13 14 15 17 21 21 22 20 18 18 18 17 16 14 14 14 13 14
1 7 3 6 12 2 5 8 8 9 10 9 6 3 4 1 1 7 6 5 3 5 4 10 13 13 17 18 18 17 21 23 21 18 17 16 16 16 15 12 12 12 12 15
6 5 4 3 2 2 7 3 8 5 9 12 8 3 4 6 8 7 6 6 5 9 10 7 9 14 17 17 18 18 20 22 23 21 19 18 17 16 13 12 11 11 12 16
Wind_Direction
40 204 213 222 193 137 138 146 321 310 288 235 244 267 244 195 199 200 197 203 212 217 223 222 220 218 216 213 213 206 200 211 213 213 216 228 239 246 259 264 259 262 250 240
163 222 206 188 180 160 172 253 285 284 314 265 337 286 294 203 210 206 203 207 212 220 215 214 213 214 215 216 215 213 218 223 219 217 218 222 235 248 259 250 235 229 222 211
206 165 168 180 185 194 206 255 280 285 309 269 316 288 283 191 216 213 215 219 215 216 224 222 214 210 213 215 212 215 222 224 229 225 213 221 224 243 236 231 232 218 195 203
213 173 186 180 199 215 247 192 261 284 316 305 348 295 304 290 244 215 215 215 218 213 219 221 218 214 212 214 215 211 212 216 223 216 202 207 216 239 226 175 163 172 183 185
189 197 197 208 211 198 247 157 288 300 279 246 196 261 284 327 308 250 214 217 214 211 210 212 213 210 212 205 202 202 195 200 200 200 200 206 222 228 197 175 173 175 175 157
233 253 224 233 192 195 137 155 85 101 163 236 111 269 253 299 277 296 215 217 212 207 207 213 215 205 202 199 191 188 189 190 191 194 202 204 208 214 192 165 158 152 141 131
238 228 230 196 190 159 185 191 217 221 217 245 112 228 270 267 267 267 286 244 217 205 206 201 200 201 197 193 190 186 188 190 194 194 191 193 192 186 171 163 155 149 148 139
218 210 193 181 218 202 197 221 227 226 227 242 143 232 259 267 280 284 268 272 221 210 210 202 198 198 198 197 194 188 191 191 196 192 189 189 186 182 175 168 161 155 154 148
180 251 206 212 169 199 163 207 273 188 101 264 249 251 278 271 272 253 254 232 219 215 207 200 195 202 200 194 195 194 193 195 194 192 184 185 184 183 179 168 166 156 157 158
191 265 211 103 170 73 233 142 173 224 202 238 207 256 256 280 283 296 255 246 232 218 204 195 192 198 198 193 196 194 199 193 187 186 183 183 177 183 181 176 173 167 168 174
164 235 159 208 202 188 161 197 85 172 249 252 257 250 235 249 267 290 279 266 265 227 187 187 184 187 185 187 186 188 188 183 175 175 173 174 176 180 181 179 177 174 174 178
187 196 235 249 151 5 294 237 194 230 204 229 286 264 246 254 274 278 280 292 248 210 179 185 191 182 182 191 180 170 168 179 172 172 175 180 181 177 174 172 174 172 170 182
174 204 224 224 168 129 234 207 214 167 203 209 251 271 221 265 274 254 262 272 261 176 170 183 188 190 177 157 147 135 126 125 132 169 180 182 174 173 175 173 170 170 179 164
162 150 236 262 240 214 192 197 198 215 194 211 238 269 267 264 273 286 251 244 260 187 176 179 169 153 150 145 125 109 107 110 114 145 182 191 182 175 169 172 170 164 163 150
210 231 219 273 253 238 250 209 191 228 196 227 305 226 263 267 283 288 276 215 209 194 163 159 147 141 140 127 120 113 97 84 97 137 146 193 200 191 178 175 167 166 151 135
263 200 213 273 344 241 235 204 201 223 229 252 266 275 273 281 280 271 240 207 210 192 155 141 146 147 142 133 120 127 102 59 348 104 163 185 175 210 183 179 170 155 145 140
297 202 220 269 344 268 238 218 205 197 218 242 240 274 292 283 282 298 248 224 210 164 163 157 158 158 159 137 145 145 141 96 234 184 172 176 169 184 176 173 160 147 142 137
212 222 253 259 219 238 254 327 254 226 248 230 259 262 270 276 305 299 259 204 191 151 160 158 152 158 153 155 163 131 354 188 194 184 200 178 169 176 173 160 154 151 143 129
245 180 237 244 231 304 265 201 185 205 260 233 240 253 266 295 292 270 151 167 163 152 150 149 146 143 148 148 140 128 87 236 195 190 186 174 175 171 157 153 153 146 142 133
114 157 236 251 257 253 265 136 126 162 262 220 219 246 264 222 246 258 137 154 156 153 146 137 140 143 134 135 148 153 158 180 189 191 176 169 168 168 159 154 154 153 146 137
195 206 239 236 257 277 10 76 203 219 314 334 297 271 234 217 291 313 124 151 142 145 143 140 144 152 151 158 161 167 162 160 175 168 160 160 165 162 156 150 155 155 147 137
219 221 215 185 234 257 78 116 253 327 311 321 324 340 311 275 255 32 58 67 116 136 143 145 150 157 154 160 165 147 126 148 163 152 148 149 154 150 152 154 151 149 151 145
226 222 285 236 249 71 357 302 295 296 303 305 325 -0 10 29 4 24 70 81 100 140 152 161 157 151 154 181 172 140 140 151 146 145 143 148 153 151 148 149 154 156 159 158
215 183 229 292 302 299 329 328 326 303 294 307 279 323 316 348 36 86 65 65 78 103 151 155 158 154 133 141 149 148 147 150 145 147 148 149 145 144 147 153 161 165 170 166
9 168 200 257 281 310 107 49 23 4 342 317 293 0 319 340 137 137 103 86 119 108 115 165 164 165 140 137 136 145 146 149 146 145 141 142 145 144 151 168 172 179 184 177
192 201 203 293 349 305 317 327 -0 12 1 347 315 24 33 106 129 118 94 102 104 115 109 121 149 154 134 136 130 141 147 150 148 146 150 150 149 152 164 172 170 175 181 186